| time (UTC) | temp F | wind direction | speed knots | gust knots | rain 1hr in | rain 24hr in | rain mn in | humidity % | barometer mb |
| 20260503230059 | 62 | 162 | 0.0 | 0.9 | 0.00 | 0.00 | 0.00 | 25 | 1012.3 |
| 20260503225555 | 62 | 245 | 0.9 | 0.9 | 0.00 | 0.00 | 0.00 | 24 | 1012.2 |
| 20260503225050 | 62 | 49 | 0.9 | 2.6 | 0.00 | 0.00 | 0.00 | 24 | 1012.2 |
| 20260503224548 | 63 | 298 | 0.9 | 0.9 | 0.00 | 0.00 | 0.00 | 25 | 1012.0 |
| 20260503224046 | 64 | 172 | 0.0 | 1.7 | 0.00 | 0.00 | 0.00 | 23 | 1012.3 |
| 20260503223544 | 65 | 208 | 0.0 | 0.9 | 0.00 | 0.00 | 0.00 | 22 | 1012.0 |
| 20260503223039 | 64 | 27 | 0.0 | 1.7 | 0.00 | 0.00 | 0.00 | 24 | 1012.0 |
| 20260503222537 | 63 | 315 | 0.0 | 2.6 | 0.00 | 0.00 | 0.00 | 25 | 1012.1 |
| 20260503222035 | 63 | 327 | 0.9 | 6.1 | 0.00 | 0.00 | 0.00 | 24 | 1012.0 |
| 20260503221533 | 63 | 254 | 1.7 | 3.5 | 0.00 | 0.00 | 0.00 | 25 | 1012.0 |
| 20260503221030 | 62 | 48 | 3.5 | 7.8 | 0.00 | 0.00 | 0.00 | 25 | 1012.1 |
| 20260503220526 | 63 | 111 | 2.6 | 5.2 | 0.00 | 0.00 | 0.00 | 24 | 1012.4 |
| 20260503220023 | 65 | 127 | 1.7 | 1.7 | 0.00 | 0.00 | 0.00 | 23 | 1012.2 |
| 20260503215520 | 65 | 336 | 0.9 | 0.9 | 0.00 | 0.00 | 0.00 | 22 | 1012.2 |
| 20260503215017 | 64 | 227 | 0.9 | 0.9 | 0.00 | 0.00 | 0.00 | 23 | 1012.1 |
| 20260503214516 | 63 | 357 | 0.0 | 1.7 | 0.00 | 0.00 | 0.00 | 26 | 1012.2 |
| 20260503214012 | 63 | 320 | 3.5 | 7.0 | 0.00 | 0.00 | 0.00 | 25 | 1012.3 |
| 20260503213511 | 63 | 354 | 5.2 | 7.8 | 0.00 | 0.00 | 0.00 | 27 | 1012.2 |
| 20260503213007 | 63 | 221 | 1.7 | 5.2 | 0.00 | 0.00 | 0.00 | 27 | 1012.3 |
| 20260503212504 | 64 | 284 | 0.9 | 0.9 | 0.00 | 0.00 | 0.00 | 25 | 1012.3 |
| 20260503212002 | 64 | 328 | 0.9 | 1.7 | 0.00 | 0.00 | 0.00 | 25 | 1012.3 |
| 20260503211458 | 63 | 274 | 1.7 | 3.5 | 0.00 | 0.00 | 0.00 | 26 | 1012.3 |
| 20260503210954 | 64 | 278 | 1.7 | 5.2 | 0.00 | 0.00 | 0.00 | 25 | 1012.3 |
| 20260503210451 | 64 | 303 | 0.9 | 6.1 | 0.00 | 0.00 | 0.00 | 26 | 1012.3 |
| 20260503205951 | 62 | 326 | 1.7 | 3.5 | 0.00 | 0.00 | 0.00 | 25 | 1012.3 |
| 20260503205449 | 62 | 279 | 3.5 | 7.8 | 0.00 | 0.00 | 0.00 | 25 | 1012.6 |
| 20260503204945 | 62 | 209 | 0.9 | 6.1 | 0.00 | 0.00 | 0.00 | 25 | 1012.5 |
| 20260503204442 | 62 | 65 | 1.7 | 7.8 | 0.00 | 0.00 | 0.00 | 26 | 1012.6 |
| 20260503203939 | 62 | 290 | 1.7 | 7.0 | 0.00 | 0.00 | 0.00 | 27 | 1012.7 |
| 20260503203437 | 63 | 308 | 2.6 | 2.6 | 0.00 | 0.00 | 0.00 | 25 | 1012.5 |
| 20260503202933 | 62 | 301 | 3.5 | 6.1 | 0.00 | 0.00 | 0.00 | 25 | 1012.5 |
| 20260503202431 | 63 | 284 | 6.1 | 8.7 | 0.00 | 0.00 | 0.00 | 28 | 1012.6 |
| 20260503201930 | 63 | 356 | 1.7 | 3.5 | 0.00 | 0.00 | 0.00 | 28 | 1012.7 |
| 20260503201426 | 62 | 320 | 2.6 | 6.1 | 0.00 | 0.00 | 0.00 | 25 | 1012.7 |
| 20260503200924 | 61 | 11 | 0.9 | 3.5 | 0.00 | 0.00 | 0.00 | 27 | 1012.8 |
| 20260503200420 | 61 | 214 | 3.5 | 6.1 | 0.00 | 0.00 | 0.00 | 26 | 1013.0 |
| 20260503195917 | 61 | 22 | 1.7 | 9.6 | 0.00 | 0.00 | 0.00 | 27 | 1013.2 |
| 20260503195414 | 62 | 285 | 1.7 | 7.0 | 0.00 | 0.00 | 0.00 | 26 | 1013.0 |
| 20260503194911 | 62 | 100 | 2.6 | 5.2 | 0.00 | 0.00 | 0.00 | 28 | 1013.2 |
| 20260503194407 | 61 | 259 | 3.5 | 6.1 | 0.00 | 0.00 | 0.00 | 26 | 1013.1 |
| 20260503193903 | 60 | 23 | 1.7 | 3.5 | 0.00 | 0.00 | 0.00 | 29 | 1013.4 |
| 20260503193359 | 61 | 301 | 2.6 | 5.2 | 0.00 | 0.00 | 0.00 | 28 | 1013.3 |
| 20260503192854 | 62 | 211 | 1.7 | 3.5 | 0.00 | 0.00 | 0.00 | 29 | 1013.5 |
| 20260503192350 | 61 | 308 | 3.5 | 5.2 | 0.00 | 0.00 | 0.00 | 29 | 1013.4 |
| 20260503191847 | 59 | 296 | 1.7 | 6.1 | 0.00 | 0.00 | 0.00 | 28 | 1013.6 |
| 20260503191344 | 60 | 43 | 2.6 | 3.5 | 0.00 | 0.00 | 0.00 | 30 | 1013.5 |
| 20260503190841 | 59 | 71 | 1.7 | 6.1 | 0.00 | 0.00 | 0.00 | 28 | 1013.9 |
| 20260503190338 | 59 | 23 | 2.6 | 3.5 | 0.00 | 0.00 | 0.00 | 32 | 1013.9 |
| 20260503185835 | 61 | 111 | 1.7 | 6.1 | 0.00 | 0.00 | 0.00 | 33 | 1013.9 |
| 20260503185331 | 59 | 136 | 0.0 | 3.5 | 0.00 | 0.00 | 0.00 | 37 | 1014.0 |
| 20260503184826 | 59 | 127 | 0.0 | 2.6 | 0.00 | 0.00 | 0.00 | 31 | 1014.3 |
| 20260503184322 | 59 | 8 | 2.6 | 12.2 | 0.00 | 0.00 | 0.00 | 33 | 1014.2 |
| 20260503183818 | 59 | 292 | 2.6 | 3.5 | 0.00 | 0.00 | 0.00 | 30 | 1014.4 |
| 20260503183315 | 59 | 126 | 0.9 | 1.7 | 0.00 | 0.00 | 0.00 | 31 | 1014.3 |
| 20260503182813 | 58 | 34 | 1.7 | 5.2 | 0.00 | 0.00 | 0.00 | 32 | 1014.5 |
| 20260503182312 | 58 | 322 | 3.5 | 5.2 | 0.00 | 0.00 | 0.00 | 33 | 1014.6 |
| 20260503181809 | 58 | 302 | 4.3 | 11.3 | 0.00 | 0.00 | 0.00 | 32 | 1014.6 |
| 20260503181306 | 57 | 172 | 0.9 | 8.7 | 0.00 | 0.00 | 0.00 | 33 | 1014.5 |
| 20260503180802 | 58 | 41 | 3.5 | 5.2 | 0.00 | 0.00 | 0.00 | 33 | 1014.6 |
| 20260503180300 | 57 | 18 | 0.9 | 3.5 | 0.00 | 0.00 | 0.00 | 35 | 1014.6 |
| 20260503175756 | 57 | 344 | 3.5 | 5.2 | 0.00 | 0.00 | 0.00 | 36 | 1014.4 |
| 20260503175254 | 56 | 274 | 1.7 | 5.2 | 0.00 | 0.00 | 0.00 | 39 | 1014.6 |
| 20260503174749 | 56 | 337 | 2.6 | 7.0 | 0.00 | 0.00 | 0.00 | 34 | 1014.7 |
| 20260503174248 | 56 | 284 | 7.0 | 8.7 | 0.00 | 0.00 | 0.00 | 34 | 1014.6 |
| 20260503173748 | 56 | 29 | 0.9 | 3.5 | 0.00 | 0.00 | 0.00 | 34 | 1014.6 |
| 20260503173244 | 55 | 18 | 2.6 | 6.1 | 0.00 | 0.00 | 0.00 | 36 | 1014.7 |
| 20260503172741 | 55 | 164 | 3.5 | 7.8 | 0.00 | 0.00 | 0.00 | 38 | 1014.7 |
| 20260503172238 | 54 | 328 | 6.1 | 9.6 | 0.00 | 0.00 | 0.00 | 39 | 1014.8 |
| 20260503171734 | 55 | 281 | 3.5 | 6.1 | 0.00 | 0.00 | 0.00 | 35 | 1015.0 |
| 20260503171231 | 56 | 27 | 2.6 | 5.2 | 0.00 | 0.00 | 0.00 | 35 | 1014.9 |
| 20260503170728 | 55 | 50 | 0.9 | 3.5 | 0.00 | 0.00 | 0.00 | 36 | 1015.0 |
| 20260503170225 | 55 | 307 | 1.7 | 6.1 | 0.00 | 0.00 | 0.00 | 37 | 1015.2 |
| 20260503160147 | 53 | 14 | 5.2 | 7.0 | 0.00 | 0.00 | 0.00 | 39 | 1015.8 |
| 20260503150617 | 50 | 36 | 3.5 | 7.8 | 0.00 | 0.00 | 0.00 | 43 | 1016.2 |
| 20260503150113 | 50 | 107 | 3.5 | 3.5 | 0.00 | 0.00 | 0.00 | 43 | 1016.1 |
| 20260503131007 | 46 | 27 | 3.5 | 6.1 | 0.00 | 0.00 | 0.00 | 48 | 1015.9 |
| 20260503130504 | 46 | 20 | 0.9 | 3.5 | 0.00 | 0.00 | 0.00 | 49 | 1016.0 |
| 20260503110400 | 41 | 305 | 0.0 | 0.0 | 0.00 | 0.00 | 0.00 | 68 | 1015.0 |
| 20260503090252 | 40 | 64 | 3.5 | 3.5 | 0.00 | 0.00 | 0.00 | 67 | 1013.4 |
| 20260503081225 | 41 | 37 | 3.5 | 7.0 | 0.00 | 0.00 | 0.00 | 66 | 1013.2 |
| 20260503080720 | 42 | 64 | 2.6 | 3.5 | 0.00 | 0.00 | 0.00 | 67 | 1013.2 |
| 20260503080218 | 42 | 5 | 3.5 | 3.5 | 0.00 | 0.00 | 0.00 | 66 | 1013.1 |
| 20260503072654 | 42 | 16 | 0.0 | 3.5 | 0.00 | 0.00 | 0.00 | 67 | 1012.8 |
| 20260503072151 | 42 | 20 | 1.7 | 1.7 | 0.00 | 0.00 | 0.00 | 68 | 1012.6 |
| 20260503071648 | 42 | 6 | 0.9 | 1.7 | 0.00 | 0.00 | 0.00 | 67 | 1012.6 |
| 20260503071145 | 42 | 38 | 1.7 | 3.5 | 0.00 | 0.00 | 0.00 | 67 | 1012.7 |
| 20260503070642 | 42 | 345 | 2.6 | 2.6 | 0.00 | 0.00 | 0.00 | 68 | 1012.6 |
| 20260503070140 | 42 | 49 | 0.9 | 2.6 | 0.00 | 0.00 | 0.00 | 69 | 1012.7 |
| 20260503060104 | 42 | 353 | 2.6 | 3.5 | 0.00 | 0.00 | 0.00 | 68 | 1012.5 |
| 20260503055055 | 42 | 4 | 1.7 | 2.6 | 0.00 | 0.00 | 0.00 | 69 | 1012.7 |
| 20260503054551 | 42 | 5 | 1.7 | 3.5 | 0.00 | 0.00 | 0.00 | 68 | 1012.5 |
| 20260503054048 | 42 | 354 | 0.9 | 2.6 | 0.00 | 0.00 | 0.00 | 68 | 1012.5 |
| 20260503053546 | 42 | 19 | 0.9 | 2.6 | 0.00 | 0.00 | 0.00 | 68 | 1012.6 |
| 20260503053044 | 42 | 56 | 0.0 | 0.9 | 0.00 | 0.00 | 0.00 | 68 | 1012.5 |
| 20260503052540 | 42 | 27 | 2.6 | 3.5 | 0.00 | 0.00 | 0.00 | 67 | 1012.6 |
| 20260503052037 | 42 | 36 | 2.6 | 3.5 | 0.00 | 0.00 | 0.00 | 68 | 1012.6 |
| 20260503051532 | 42 | 16 | 1.7 | 1.7 | 0.00 | 0.00 | 0.00 | 68 | 1012.6 |
| 20260503051030 | 42 | 10 | 0.9 | 3.5 | 0.00 | 0.00 | 0.00 | 67 | 1012.5 |
| 20260503050525 | 42 | 30 | 1.7 | 5.2 | 0.00 | 0.00 | 0.00 | 66 | 1012.6 |
| 20260503050023 | 42 | 20 | 1.7 | 3.5 | 0.00 | 0.00 | 0.00 | 66 | 1012.5 |
| 20260503045520 | 42 | 1 | 1.7 | 6.1 | 0.00 | 0.00 | 0.00 | 65 | 1012.7 |
| 20260503045018 | 43 | 55 | 1.7 | 3.5 | 0.00 | 0.00 | 0.00 | 64 | 1012.6 |
| 20260503044514 | 43 | 20 | 0.0 | 2.6 | 0.00 | 0.00 | 0.00 | 64 | 1012.7 |
| 20260503044012 | 43 | 37 | 3.5 | 5.2 | 0.00 | 0.00 | 0.00 | 63 | 1012.7 |
| 20260503043508 | 43 | 347 | 1.7 | 3.5 | 0.00 | 0.00 | 0.00 | 62 | 1012.7 |
| 20260503043004 | 44 | 19 | 0.9 | 3.5 | 0.00 | 0.00 | 0.00 | 62 | 1012.6 |
| 20260503042501 | 44 | 53 | 1.7 | 2.6 | 0.00 | 0.00 | 0.00 | 60 | 1012.5 |
| 20260503041958 | 44 | 359 | 0.9 | 2.6 | 0.00 | 0.00 | 0.00 | 60 | 1012.6 |
| 20260503041454 | 44 | 61 | 2.6 | 2.6 | 0.00 | 0.00 | 0.00 | 60 | 1012.6 |
| 20260503040952 | 45 | 71 | 4.3 | 7.0 | 0.00 | 0.00 | 0.00 | 58 | 1012.6 |
| 20260503040449 | 45 | 45 | 1.7 | 7.0 | 0.00 | 0.00 | 0.00 | 58 | 1012.4 |
| 20260503035946 | 45 | 20 | 1.7 | 3.5 | 0.00 | 0.00 | 0.00 | 58 | 1012.7 |
| 20260503035443 | 46 | 35 | 2.6 | 5.2 | 0.00 | 0.00 | 0.00 | 56 | 1012.6 |
| 20260503034941 | 46 | 30 | 2.6 | 5.2 | 0.00 | 0.00 | 0.00 | 55 | 1012.5 |
| 20260503034438 | 46 | 339 | 2.6 | 6.1 | 0.00 | 0.00 | 0.00 | 54 | 1012.4 |
| 20260503033935 | 47 | 30 | 1.7 | 6.1 | 0.00 | 0.00 | 0.00 | 53 | 1012.5 |
| 20260503033432 | 47 | 27 | 5.2 | 7.8 | 0.00 | 0.00 | 0.00 | 52 | 1012.5 |
| 20260503032930 | 47 | 42 | 3.5 | 6.1 | 0.00 | 0.00 | 0.00 | 49 | 1012.4 |
| 20260503032429 | 48 | 30 | 2.6 | 3.5 | 0.00 | 0.00 | 0.00 | 48 | 1012.2 |
| 20260503031926 | 48 | 40 | 0.9 | 2.6 | 0.00 | 0.00 | 0.00 | 48 | 1012.2 |
| 20260503031424 | 48 | 41 | 4.3 | 7.0 | 0.00 | 0.00 | 0.00 | 48 | 1012.1 |
| 20260503030920 | 48 | 15 | 1.7 | 2.6 | 0.00 | 0.00 | 0.00 | 48 | 1012.0 |
| 20260503030417 | 48 | 36 | 1.7 | 3.5 | 0.00 | 0.00 | 0.00 | 48 | 1012.1 |
| 20260503025913 | 48 | 15 | 2.6 | 2.6 | 0.00 | 0.00 | 0.00 | 47 | 1012.2 |
| 20260503025410 | 48 | 35 | 1.7 | 2.6 | 0.00 | 0.00 | 0.00 | 47 | 1012.2 |
| 20260503024908 | 49 | 26 | 1.7 | 2.6 | 0.00 | 0.00 | 0.00 | 46 | 1012.3 |
| 20260503024404 | 49 | 17 | 1.7 | 3.5 | 0.00 | 0.00 | 0.00 | 45 | 1012.2 |
| 20260503023901 | 49 | 46 | 0.9 | 1.7 | 0.00 | 0.00 | 0.00 | 45 | 1012.3 |
| 20260503023358 | 49 | 351 | 1.7 | 1.7 | 0.00 | 0.00 | 0.00 | 44 | 1012.1 |
| 20260503022856 | 49 | 293 | 0.9 | 3.5 | 0.00 | 0.00 | 0.00 | 43 | 1012.2 |
| 20260503022355 | 49 | 2 | 0.9 | 2.6 | 0.00 | 0.00 | 0.00 | 43 | 1012.2 |
| 20260503021852 | 49 | 312 | 1.7 | 2.6 | 0.00 | 0.00 | 0.00 | 43 | 1012.2 |
| 20260503021348 | 49 | 10 | 2.6 | 3.5 | 0.00 | 0.00 | 0.00 | 42 | 1012.1 |
| 20260503020846 | 49 | 25 | 0.9 | 1.7 | 0.00 | 0.00 | 0.00 | 43 | 1012.0 |
| 20260503020343 | 49 | 346 | 1.7 | 2.6 | 0.00 | 0.00 | 0.00 | 43 | 1012.0 |
| 20260503015839 | 50 | 318 | 1.7 | 2.6 | 0.00 | 0.00 | 0.00 | 42 | 1012.0 |
| 20260503015337 | 50 | 16 | 0.9 | 3.5 | 0.00 | 0.00 | 0.00 | 42 | 1012.1 |
| 20260503014832 | 50 | 9 | 1.7 | 2.6 | 0.00 | 0.00 | 0.00 | 42 | 1012.1 |
| 20260503014330 | 50 | 328 | 0.9 | 5.2 | 0.00 | 0.00 | 0.00 | 41 | 1012.1 |
| 20260503013827 | 50 | 256 | 0.0 | 2.6 | 0.00 | 0.00 | 0.00 | 42 | 1012.0 |
| 20260503013325 | 50 | 20 | 1.7 | 2.6 | 0.00 | 0.00 | 0.00 | 42 | 1012.1 |
| 20260503012822 | 50 | 296 | 1.7 | 3.5 | 0.00 | 0.00 | 0.00 | 41 | 1012.0 |
| 20260503012319 | 50 | 325 | 1.7 | 2.6 | 0.00 | 0.00 | 0.00 | 42 | 1012.0 |
| 20260503011816 | 50 | 16 | 1.7 | 1.7 | 0.00 | 0.00 | 0.00 | 41 | 1011.9 |
| 20260503011313 | 50 | 349 | 1.7 | 5.2 | 0.00 | 0.00 | 0.00 | 41 | 1011.7 |
| 20260503010809 | 51 | 298 | 0.9 | 3.5 | 0.00 | 0.00 | 0.00 | 40 | 1011.7 |
| 20260503010307 | 51 | 347 | 5.2 | 7.0 | 0.00 | 0.00 | 0.00 | 39 | 1011.8 |
| 20260503005803 | 50 | 293 | 0.0 | 2.6 | 0.00 | 0.00 | 0.00 | 40 | 1011.4 |
| 20260503005301 | 51 | 357 | 1.7 | 3.5 | 0.00 | 0.00 | 0.00 | 40 | 1011.7 |
| 20260503004756 | 51 | 354 | 1.7 | 3.5 | 0.00 | 0.00 | 0.00 | 40 | 1011.3 |
| 20260503004255 | 51 | 14 | 3.5 | 5.2 | 0.00 | 0.00 | 0.00 | 40 | 1011.4 |
| 20260503003752 | 51 | 345 | 1.7 | 1.7 | 0.00 | 0.00 | 0.00 | 40 | 1011.2 |
| 20260503003249 | 51 | 1 | 0.0 | 5.2 | 0.00 | 0.00 | 0.00 | 40 | 1011.0 |
| 20260503002745 | 51 | 343 | 1.7 | 3.5 | 0.00 | 0.00 | 0.00 | 40 | 1011.2 |
| 20260503002242 | 51 | 356 | 0.9 | 1.7 | 0.00 | 0.00 | 0.00 | 39 | 1011.0 |
| 20260503001738 | 51 | 28 | 2.6 | 7.8 | 0.00 | 0.00 | 0.00 | 38 | 1010.8 |
| 20260503001235 | 51 | 50 | 3.5 | 6.1 | 0.00 | 0.00 | 0.00 | 38 | 1010.8 |
| 20260503000733 | 51 | 347 | 1.7 | 9.6 | 0.00 | 0.00 | 0.00 | 38 | 1010.9 |
| 20260503000230 | 51 | 28 | 4.3 | 6.1 | 0.00 | 0.00 | 0.00 | 38 | 1010.7 |
| 20260502235727 | 52 | 39 | 3.5 | 7.0 | 0.00 | 0.00 | 0.00 | 38 | 1010.7 |
| 20260502235225 | 52 | 348 | 2.6 | 7.8 | 0.00 | 0.00 | 0.00 | 38 | 1010.7 |
| 20260502234721 | 52 | 321 | 4.3 | 12.2 | 0.00 | 0.00 | 0.00 | 38 | 1010.4 |
| 20260502234218 | 52 | 343 | 3.5 | 3.5 | 0.00 | 0.00 | 0.00 | 39 | 1010.7 |
| 20260502233714 | 52 | 24 | 5.2 | 7.8 | 0.00 | 0.00 | 0.00 | 38 | 1010.5 |
| 20260502233211 | 52 | 43 | 1.7 | 5.2 | 0.00 | 0.00 | 0.00 | 39 | 1010.5 |
| 20260502232706 | 52 | 22 | 1.7 | 3.5 | 0.00 | 0.00 | 0.00 | 39 | 1010.3 |
| 20260502232204 | 53 | 34 | 3.5 | 5.2 | 0.00 | 0.00 | 0.00 | 38 | 1010.2 |
| 20260502231700 | 53 | 12 | 4.3 | 6.1 | 0.00 | 0.00 | 0.00 | 39 | 1010.1 |
| 20260502231158 | 53 | 325 | 1.7 | 6.1 | 0.00 | 0.00 | 0.00 | 41 | 1010.1 |
| 20260502230657 | 52 | 23 | 1.7 | 2.6 | 0.00 | 0.00 | 0.00 | 41 | 1010.2 |